Flag for Mexico Weather past 2 weeks in Oaxaca, Oaxaca, Mexico

Now
64 °F

Broken clouds.


Feels Like: 64 °F
Forecast: 58 / 82 °F
Wind: 6 mph from Northeast

Location: Oaxaca / Xoxocotlan

Current Time: Aug 22, 2014 at 10:51:28 AM

Latest Report: Aug 22, 2014 at 9:49 AM


Visibility: 8 mi

Pressure: 29.94 "Hg

Humidity: 78%

Dew point: 57 °F

Location of OaxacaLocation

Historic Weather in Oaxaca — Graph

°F

Oaxaca temperature yesterday

Maximum temperature yesterday: 75 °F (at 1:45 PM)
Minimum temperature yesterday: 63 °F (at 6:03 AM)
Average temperature yesterday: 69 °F

Past Weeks' High & Low Weather Summary

 TemperatureHumidityPressure
High82 °F (Aug 7, 2:45 PM)94% (Aug 10, 7:48 AM)30.32 "Hg (Aug 10, 7:48 AM)
Low55 °F (Aug 14, 6:07 AM)30% (Aug 16, 5:45 PM)29.70 "Hg (Aug 8, 12:58 PM)
Average69 °F64%30.11 "Hg
* Reported Aug 7 10:41 AM — Aug 22 9:49 AM, Oaxaca, Weather by CustomWeather, © 2014

Note: Actual official high and low records may vary slightly from our data, if they occured in-between our weather recording intervals... More about our weather records

Advertising

Oaxaca weather history for previous 24 hours

 ConditionsComfort  
Time TempWeatherWind HumidityBarometerVisibility
9:49 AM
Aug 22
64 °FBroken clouds.6 mph78%29.94 "Hg8 mi
8:49 AM64 °FBroken clouds.6 mph83%30.26 "Hg8 mi
6:53 AM61 °FPassing clouds.2 mph88%29.93 "Hg7 mi
6:17 AM63 °FLight rain. Mostly cloudy.2 mph83%30.25 "Hg5 mi
6:16 AM63 °FLight rain. Mostly cloudy.2 mph83%30.25 "Hg5 mi
10:45 PM
Aug 21
64 °FPassing clouds.6 mph78%30.30 "Hg7 mi
9:45 PM64 °FPassing clouds.6 mph83%29.89 "Hg7 mi
8:45 PM66 °FPartly sunny.6 mph73%30.26 "Hg7 mi
7:50 PM68 °FPartly sunny.7 mph73%30.23 "Hg7 mi
6:45 PM70 °FPartly sunny.6 mph69%29.88 "Hg7 mi
5:49 PM70 °FPartly sunny.6 mph69%30.19 "Hg7 mi
4:45 PM73 °FLight rain. Partly sunny.9 mph50%30.19 "Hg7 mi
3:45 PM75 °FPartly sunny.6 mph44%29.80 "Hg8 mi
2:50 PM75 °FMostly cloudy.No wind50%30.21 "Hg8 mi
1:45 PM75 °FMostly cloudy.No wind50%30.23 "Hg8 mi
12:45 PM73 °FPartly sunny.5 mph53%29.91 "Hg10 mi
11:45 AM70 °FMostly cloudy.6 mph60%30.28 "Hg10 mi
Weather by CustomWeather, © 2014

See weather overviewHow to use our weather pages